This is the latest recevied weather packets stored in our database for station/object K1WJY. If no packets are shown the sender has not sent any weather packets the latest 10 day(s).
| Time | Temp. | Humidity | Pressure | Rain* | Wind** | Luminosity | Snow |
|---|---|---|---|---|---|---|---|
| 1777463798 | 6.11° C | 99% | 1022.1 hPa | 0 mm | - | 74 W/m² | - |
| 1777463493 | 6.11° C | 99% | 1021.8 hPa | 0 mm | - | 79 W/m² | - |
| 1777463189 | 5.56° C | 99% | 1021.7 hPa | 0 mm | - | 79 W/m² | - |
| 1777462885 | 5.56° C | 99% | 1021.8 hPa | 0 mm | - | 104 W/m² | - |
| 1777462582 | 5.56° C | 99% | 1021.5 hPa | 0 mm | - | 140 W/m² | - |
| 1777462277 | 5.56° C | 99% | 1021.7 hPa | 0 mm | - | 111 W/m² | - |
| 1777461973 | 5.56° C | 99% | 1021.8 hPa | 0 mm | - | 97 W/m² | - |
| 1777461670 | 6.11° C | 99% | 1021.6 hPa | 0 mm | - | 87 W/m² | - |
| 1777461370 | 5.56° C | 99% | 1021.7 hPa | 0 mm | - | 88 W/m² | - |
| 1777461067 | 5.56° C | 99% | 1021.7 hPa | 0 mm | - | 93 W/m² | - |
| 1777460762 | 5.56° C | 99% | 1021.7 hPa | 0 mm | - | 73 W/m² | - |
| 1777460458 | 5.56° C | 99% | 1021.8 hPa | 0 mm | - | 78 W/m² | - |
| 1777460154 | 5.56° C | 99% | 1021.7 hPa | 0 mm | - | 73 W/m² | - |
| 1777459852 | 5.56° C | 99% | 1021.8 hPa | 0 mm | - | 45 W/m² | - |
| 1777459548 | 5.56° C | 99% | 1021.7 hPa | 0 mm | - | 60 W/m² | - |
| 1777459246 | 5.56° C | 99% | 1021.8 hPa | 0 mm | - | 51 W/m² | - |
| 1777458944 | 5° C | 99% | 1021.7 hPa | 0 mm | - | 44 W/m² | - |
| 1777458640 | 5° C | 99% | 1021.8 hPa | 0 mm | - | 35 W/m² | - |
| 1777458336 | 5° C | 99% | 1021.8 hPa | 0 mm | - | 28 W/m² | - |
| 1777458032 | 5° C | 99% | 1022.1 hPa | 0 mm | - | 20 W/m² | - |
| 1777457728 | 5° C | 99% | 1022.2 hPa | 0 mm | - | 17 W/m² | - |
| 1777457428 | 5° C | 99% | 1021.9 hPa | 0 mm | - | 23 W/m² | - |
| 1777457124 | 5° C | 99% | 1022 hPa | 0 mm | - | 18 W/m² | - |
| 1777456820 | 5° C | 99% | 1022.1 hPa | 0 mm | - | 12 W/m² | - |
| 1777456520 | 5° C | 99% | 1022.1 hPa | 1.78 mm | - | 11 W/m² | - |
* Rain latest hour (hover to see other rain measurements)
** Current wind speed in m/s (hover to see current wind gust speed)